Weather History for Napoli / Capodichino, Italy

Change the Weather History Date:

Wednesday, March 6, 2013

  Actual Average Record
Temperature  
Mean Temperature 58 °F -  
Max Temperature 64 °F 60 °F - ()
Min Temperature 51 °F 44 °F - ()
Degree Days  
Heating Degree Days 8    
Growing Degree Days 8 (Base 50)    
Moisture  
Dew Point 47 °F    
Average Humidity 70    
Maximum Humidity 94    
Minimum Humidity 40    
Precipitation  
Precipitation 0.00 in 0.11 in - ()
Sea Level Pressure  
Sea Level Pressure 29.84 in    
Wind  
Wind Speed 6 mph ()    
Max Wind Speed 16 mph    
Max Gust Speed 32 mph    
Visibility 5.6 miles    
Events Rain    
T = Trace of Precipitation, MM = Missing Value Source: Averaged Metar Reports

Daily Weather History Graph

Daily Weather History Graph

Search for Another Location

Airport:

Trip Planner

Search our weather history database for the weather conditions in past years. The results will help you decide how hot, cold, wet, or windy it might be!

Date:

Astronomy

Mar. 06, 2013 Rise Set
Actual Time 6:29 AM CET 5:59 PM CET
Civil Twilight 6:01 AM CET 6:27 PM CET
Nautical Twilight 5:30 AM CET 6:58 PM CET
Astronomical Twilight 4:58 AM CET 7:30 PM CET
Moon 2:24 AM CET (3/6) 12:21 PM CET (3/6)
Length of Visible Light 12h 25m
Length of Day
11h 30m
Waning Crescent, 33% of the Moon is Illuminated
Mar 6
Waning Crescent
Mar 11
New
Mar 19
First Quarter
Mar 27
Full
Apr 3
Last Quarter

Hourly Weather History & Observations

Time (CET) Temp. Dew Point Humidity Pressure Visibility Wind Dir Wind Speed Gust Speed Precip Events Conditions
12:20 AM 53.6 °F 44.6 °F 72% 29.98 in 6.2 mi NE 5.8 mph - N/A   Mostly Cloudy
12:50 AM 55.4 °F 44.6 °F 67% 29.98 in 6.2 mi Variable 1.2 mph - N/A   Mostly Cloudy
1:20 AM 53.6 °F 44.6 °F 72% 29.98 in 6.2 mi Variable 2.3 mph - N/A   Mostly Cloudy
1:50 AM 53.6 °F 44.6 °F 72% 29.98 in 6.2 mi Variable 2.3 mph - N/A   Mostly Cloudy
2:20 AM 51.8 °F 44.6 °F 76% 29.95 in 6.2 mi West 4.6 mph - N/A   Mostly Cloudy
2:50 AM 53.6 °F 44.6 °F 72% 29.92 in 6.2 mi NNW 6.9 mph - N/A   Mostly Cloudy
3:20 AM 55.4 °F 42.8 °F 63% 29.92 in 6.2 mi NW 6.9 mph - N/A   Mostly Cloudy
3:50 AM 55.4 °F 44.6 °F 67% 29.92 in 6.2 mi NW 4.6 mph - N/A   Mostly Cloudy
4:20 AM 53.6 °F 42.8 °F 67% 29.92 in 6.2 mi WNW 4.6 mph - N/A   Mostly Cloudy
4:50 AM 55.4 °F 42.8 °F 63% 29.92 in 6.2 mi NW 5.8 mph - N/A   Mostly Cloudy
5:20 AM 53.6 °F 42.8 °F 67% 29.89 in 6.2 mi Variable 2.3 mph - N/A   Mostly Cloudy
5:50 AM 53.6 °F 42.8 °F 67% 29.89 in 6.2 mi NW 4.6 mph - N/A   Mostly Cloudy
6:20 AM 55.4 °F 41.0 °F 58% 29.86 in 6.2 mi WNW 3.5 mph - N/A   Mostly Cloudy
6:50 AM 51.8 °F 42.8 °F 71% 29.89 in 6.2 mi West 6.9 mph - N/A   Mostly Cloudy
7:20 AM 55.4 °F 42.8 °F 63% 29.86 in 6.2 mi NE 5.8 mph - N/A   Mostly Cloudy
7:50 AM 57.2 °F 41.0 °F 55% 29.86 in 6.2 mi NNE 4.6 mph - N/A   Mostly Cloudy
8:20 AM 57.2 °F 41.0 °F 55% 29.92 in 6.2 mi WNW 10.4 mph - N/A   Mostly Cloudy
8:50 AM 57.2 °F 42.8 °F 59% 29.92 in 6.2 mi West 11.5 mph - N/A   Mostly Cloudy
9:20 AM 62.6 °F 39.2 °F 42% 29.89 in 6.2 mi SE 9.2 mph - N/A   Mostly Cloudy
9:50 AM 62.6 °F 39.2 °F 42% 29.86 in 6.2 mi SE 6.9 mph - N/A   Mostly Cloudy
10:20 AM 64.4 °F 39.2 °F 40% 29.89 in 6.2 mi SSE 8.1 mph - N/A   Mostly Cloudy
10:50 AM 62.6 °F 42.8 °F 48% 29.89 in 6.2 mi South 12.7 mph 25.3 mph N/A   Mostly Cloudy
11:20 AM 62.6 °F 44.6 °F 52% 29.86 in 6.2 mi SSE 16.1 mph 27.6 mph N/A   Mostly Cloudy
11:50 AM 57.2 °F 48.2 °F 72% 29.86 in 3.7 mi SSE 11.5 mph 23.0 mph N/A Rain Rain
12:20 PM 57.2 °F 50.0 °F 77% 29.83 in 3.7 mi SE 10.4 mph - N/A Rain Rain
12:50 PM 57.2 °F 50.0 °F 77% 29.83 in 3.1 mi SE 11.5 mph - N/A Rain Rain
1:20 PM 55.4 °F 50.0 °F 82% 29.80 in 3.1 mi SSE 11.5 mph 24.2 mph N/A Rain Rain
1:50 PM 57.2 °F 50.0 °F 77% 29.80 in 3.1 mi SSE 13.8 mph 26.5 mph N/A Rain Light Rain
2:20 PM 59.0 °F 50.0 °F 72% 29.77 in 6.2 mi SSE 16.1 mph 29.9 mph N/A   Mostly Cloudy
2:50 PM 59.0 °F 50.0 °F 72% 29.77 in 6.2 mi SSE 13.8 mph 29.9 mph N/A   Mostly Cloudy
3:20 PM 59.0 °F 50.0 °F 72% 29.77 in 6.2 mi SSE 11.5 mph 24.2 mph N/A   Drizzle
3:50 PM 59.0 °F 50.0 °F 72% 29.77 in 6.2 mi SSE 13.8 mph 32.2 mph N/A   Mostly Cloudy
4:20 PM 59.0 °F 50.0 °F 72% 29.77 in 6.2 mi Variable 11.5 mph 24.2 mph N/A   Mostly Cloudy
4:50 PM 57.2 °F 51.8 °F 82% 29.77 in 6.2 mi SSE 12.7 mph 26.5 mph N/A Rain Rain
5:20 PM 57.2 °F 51.8 °F 82% 29.77 in 3.7 mi SSE 8.1 mph 25.3 mph N/A Rain Rain
5:50 PM 59.0 °F 51.8 °F 77% 29.74 in 6.2 mi SSE 12.7 mph 24.2 mph N/A   Mostly Cloudy
6:20 PM 59.0 °F 51.8 °F 77% 29.77 in 5.0 mi SSE 10.4 mph - N/A Rain Light Rain
6:50 PM 57.2 °F 51.8 °F 82% 29.77 in 4.3 mi SSE 8.1 mph - N/A Rain Light Rain
7:20 PM 59.0 °F 51.8 °F 77% 29.77 in 4.3 mi SSE 8.1 mph - N/A Rain Light Rain
7:50 PM 57.2 °F 51.8 °F 82% 29.77 in 4.3 mi Variable 5.8 mph - N/A Rain Rain
8:20 PM 55.4 °F 53.6 °F 94% 29.77 in 5.0 mi NE 3.5 mph - N/A Rain Light Rain
8:50 PM 57.2 °F 51.8 °F 82% 29.77 in 4.3 mi Variable 2.3 mph - N/A Rain Light Rain
9:20 PM 57.2 °F 53.6 °F 88% 29.77 in 5.0 mi Variable 2.3 mph - N/A Rain Light Rain
9:50 PM 59.0 °F 51.8 °F 77% 29.77 in 5.0 mi South 8.1 mph - N/A   Mostly Cloudy
10:20 PM 59.0 °F 51.8 °F 77% 29.77 in 5.0 mi South 6.9 mph - N/A   Mostly Cloudy
10:50 PM 59.0 °F 53.6 °F 82% 29.77 in 6.2 mi SSE 5.8 mph - N/A   Mostly Cloudy
11:20 PM 59.0 °F 51.8 °F 77% 29.77 in 6.2 mi SSE 4.6 mph - N/A   Mostly Cloudy
11:50 PM 59.0 °F 51.8 °F 77% 29.77 in 6.2 mi South 5.8 mph - N/A   Drizzle